• In Uzbekistan
  • List of Countries
  • For 7 days
  • Water Temperature
  • Satellite Maps
  • Weather Map
  • Weather Widgets
  • user-avatar
    Login

    Hourly Weather Taba

    Today, 20 November, Monday

    Time Temperature Precipitation Wind Pressure Humidity
    00:00 +16°C° 0 mm 1 mps 692 mmHg 77%
    01:00 +16°C° 0 mm 1 mps 692 mmHg 79%
    02:00 +16°C° 0 mm 1 mps 692 mmHg 80%
    03:00 +16°C° 0 mm 1 mps 692 mmHg 81%
    04:00 +15°C° 0 mm 2 mps 692 mmHg 82%
    05:00 +15°C° 0 mm 2 mps 692 mmHg 83%
    06:00 +16°C° 0 mm 2 mps 692 mmHg 81%
    07:00 +16°C° 0 mm 2 mps 692 mmHg 78%
    08:00 +17°C° 0 mm 2 mps 692 mmHg 77%
    09:00 +18°C° 0 mm 2 mps 692 mmHg 70%
    10:00 +19°C° 0 mm 2 mps 692 mmHg 64%
    11:00 +20°C° 0 mm 2 mps 692 mmHg 57%
    12:00 +20°C° 0 mm 3 mps 692 mmHg 53%
    13:00 +21°C° 0 mm 3 mps 692 mmHg 48%
    14:00 +21°C° 0 mm 4 mps 692 mmHg 44%
    15:00 +20°C° 0 mm 4 mps 692 mmHg 44%
    16:00 +19°C° 0 mm 4 mps 692 mmHg 45%
    17:00 +18°C° 0 mm 4 mps 692 mmHg 45%
    18:00 +18°C° 0 mm 4 mps 692 mmHg 47%
    19:00 +17°C° 0 mm 3 mps 692 mmHg 49%
    20:00 +16°C° 0 mm 3 mps 692 mmHg 51%
    21:00 +15°C° 0 mm 2 mps 692 mmHg 52%
    22:00 +15°C° 0 mm 2 mps 692 mmHg 54%
    23:00 +14°C° 0 mm 2 mps 692 mmHg 56%

    Tomorrow, 21 November, Tuesday

    Time Temperature Precipitation Wind Pressure Humidity
    00:00 +14°C° 0 mm 2 mps 692 mmHg 57%
    01:00 +13°C° 0 mm 2 mps 692 mmHg 58%
    02:00 +13°C° 0 mm 2 mps 692 mmHg 59%
    03:00 +13°C° 0 mm 2 mps 692 mmHg 64%
    04:00 +12°C° 0 mm 2 mps 692 mmHg 68%
    05:00 +12°C° 0 mm 2 mps 691 mmHg 73%
    06:00 +13°C° 0 mm 2 mps 692 mmHg 69%
    07:00 +12°C° 0 mm 3 mps 692 mmHg 66%
    08:00 +13°C° 0 mm 3 mps 693 mmHg 63%
    09:00 +14°C° 0 mm 3 mps 693 mmHg 57%
    10:00 +15°C° 0 mm 4 mps 693 mmHg 52%
    11:00 +18°C° 0 mm 4 mps 693 mmHg 46%
    12:00 +17°C° 0 mm 5 mps 693 mmHg 46%
    13:00 +17°C° 0 mm 5 mps 692 mmHg 46%
    14:00 +19°C° 0 mm 5 mps 692 mmHg 45%
    15:00 +17°C° 0 mm 5 mps 692 mmHg 50%
    16:00 +16°C° 0 mm 5 mps 692 mmHg 55%
    17:00 +15°C° 0 mm 5 mps 692 mmHg 60%
    18:00 +15°C° 0 mm 5 mps 692 mmHg 64%
    19:00 +14°C° 0 mm 5 mps 692 mmHg 68%
    20:00 +13°C° 0 mm 5 mps 693 mmHg 72%
    21:00 +13°C° 0 mm 5 mps 693 mmHg 71%
    22:00 +13°C° 0 mm 4 mps 693 mmHg 70%
    23:00 +12°C° 0 mm 4 mps 693 mmHg 69%

    Day after tomorrow, 22 November, Wednesday

    Time Temperature Precipitation Wind Pressure Humidity
    00:00 +11°C° 0 mm 4 mps 693 mmHg 71%
    01:00 +11°C° 0 mm 4 mps 693 mmHg 73%
    02:00 +10°C° 0 mm 3 mps 693 mmHg 74%
    03:00 +9°C° 0 mm 3 mps 692 mmHg 76%
    04:00 +9°C° 0 mm 3 mps 692 mmHg 77%
    05:00 +8°C° 0 mm 3 mps 692 mmHg 79%
    06:00 +9°C° 0 mm 3 mps 692 mmHg 76%
    07:00 +9°C° 0 mm 3 mps 693 mmHg 73%
    08:00 +9°C° 0 mm 3 mps 693 mmHg 71%
    09:00 +10°C° 0 mm 3 mps 694 mmHg 64%
    10:00 +12°C° 0 mm 4 mps 694 mmHg 58%
    11:00 +13°C° 0 mm 4 mps 694 mmHg 52%
    12:00 +13°C° 0 mm 4 mps 693 mmHg 50%
    13:00 +14°C° 0 mm 5 mps 693 mmHg 47%
    14:00 +14°C° 0 mm 5 mps 693 mmHg 45%
    15:00 +14°C° 0 mm 5 mps 693 mmHg 49%
    16:00 +13°C° 0 mm 5 mps 693 mmHg 53%
    17:00 +12°C° 0 mm 4 mps 693 mmHg 56%
    18:00 +12°C° 0 mm 4 mps 693 mmHg 59%
    19:00 +11°C° 0 mm 4 mps 693 mmHg 62%
    20:00 +11°C° 0 mm 3 mps 694 mmHg 65%
    21:00 +10°C° 0 mm 3 mps 694 mmHg 68%
    22:00 +10°C° 0 mm 3 mps 694 mmHg 71%
    23:00 +9°C° 0 mm 3 mps 694 mmHg 73%

    23 November, Thursday

    Time Temperature Precipitation Wind Pressure Humidity
    00:00 +9°C° 0 mm 2 mps 694 mmHg 75%
    01:00 +9°C° 0 mm 2 mps 693 mmHg 76%
    02:00 +8°C° 0 mm 2 mps 693 mmHg 78%
    03:00 +8°C° 0 mm 2 mps 693 mmHg 79%
    04:00 +8°C° 0 mm 2 mps 693 mmHg 80%
    05:00 +8°C° 0 mm 2 mps 693 mmHg 82%
    06:00 +8°C° 0 mm 2 mps 693 mmHg 78%
    07:00 +9°C° 0 mm 2 mps 694 mmHg 74%
    08:00 +10°C° 0 mm 2 mps 694 mmHg 71%
    09:00 +11°C° 0 mm 3 mps 694 mmHg 65%
    10:00 +12°C° 0 mm 3 mps 694 mmHg 59%
    11:00 +13°C° 0 mm 3 mps 694 mmHg 53%
    12:00 +14°C° 0 mm 4 mps 694 mmHg 50%
    13:00 +14°C° 0 mm 4 mps 694 mmHg 47%
    14:00 +15°C° 0 mm 4 mps 693 mmHg 45%
    15:00 +14°C° 0 mm 4 mps 693 mmHg 48%
    16:00 +14°C° 0 mm 4 mps 693 mmHg 51%
    17:00 +13°C° 0 mm 3 mps 693 mmHg 54%
    18:00 +12°C° 0 mm 3 mps 693 mmHg 57%
    19:00 +12°C° 0 mm 3 mps 694 mmHg 60%
    20:00 +12°C° 0 mm 2 mps 694 mmHg 63%
    21:00 +12°C° 0 mm 2 mps 694 mmHg 65%
    22:00 +10°C° 0 mm 2 mps 694 mmHg 67%
    23:00 +10°C° 0 mm 2 mps 694 mmHg 69%

    24 November, Friday

    Time Temperature Precipitation Wind Pressure Humidity
    00:00 +9°C° 0 mm 2 mps 694 mmHg 71%
    01:00 +9°C° 0 mm 2 mps 694 mmHg 72%
    02:00 +9°C° 0 mm 2 mps 693 mmHg 74%
    03:00 +8°C° 0 mm 2 mps 693 mmHg 75%
    04:00 +8°C° 0 mm 2 mps 693 mmHg 76%
    05:00 +8°C° 0 mm 2 mps 693 mmHg 77%
    06:00 +9°C° 0 mm 2 mps 694 mmHg 72%
    07:00 +10°C° 0 mm 2 mps 694 mmHg 68%
    08:00 +11°C° 0 mm 3 mps 695 mmHg 63%
    09:00 +12°C° 0 mm 3 mps 695 mmHg 57%
    10:00 +13°C° 0 mm 3 mps 695 mmHg 50%
    11:00 +15°C° 0 mm 4 mps 695 mmHg 43%
    12:00 +15°C° 0 mm 4 mps 695 mmHg 41%
    13:00 +17°C° 0 mm 4 mps 694 mmHg 39%
    14:00 +18°C° 0 mm 4 mps 694 mmHg 36%
    15:00 +17°C° 0 mm 4 mps 694 mmHg 40%
    16:00 +15°C° 0 mm 4 mps 694 mmHg 43%
    17:00 +14°C° 0 mm 3 mps 694 mmHg 47%
    18:00 +14°C° 0 mm 3 mps 694 mmHg 50%
    19:00 +13°C° 0 mm 3 mps 694 mmHg 54%
    20:00 +12°C° 0 mm 3 mps 695 mmHg 58%
    21:00 +13°C° 0 mm 2 mps 695 mmHg 60%
    22:00 +12°C° 0 mm 2 mps 694 mmHg 62%
    23:00 +12°C° 0 mm 2 mps 694 mmHg 64%

    25 November, Saturday

    Time Temperature Precipitation Wind Pressure Humidity
    00:00 +10°C° 0 mm 2 mps 694 mmHg 65%
    01:00 +11°C° 0 mm 1 mps 694 mmHg 66%
    02:00 +11°C° 0 mm 1 mps 694 mmHg 67%
    03:00 +10°C° 0 mm 1 mps 694 mmHg 67%
    04:00 +10°C° 0 mm 1 mps 694 mmHg 66%
    05:00 +10°C° 0 mm 1 mps 694 mmHg 66%
    06:00 +11°C° 0 mm 1 mps 694 mmHg 60%
    07:00 +12°C° 0 mm 2 mps 695 mmHg 54%
    08:00 +14°C° 0 mm 2 mps 695 mmHg 47%
    09:00 +15°C° 0 mm 2 mps 695 mmHg 42%
    10:00 +17°C° 0 mm 2 mps 695 mmHg 37%
    11:00 +18°C° 0 mm 2 mps 695 mmHg 31%
    12:00 +19°C° 0 mm 2 mps 694 mmHg 30%
    13:00 +19°C° 0 mm 2 mps 694 mmHg 28%
    14:00 +20°C° 0 mm 2 mps 693 mmHg 27%
    15:00 +19°C° 0 mm 2 mps 693 mmHg 29%
    16:00 +18°C° 0 mm 2 mps 693 mmHg 31%
    17:00 +17°C° 0 mm 2 mps 693 mmHg 33%
    18:00 +16°C° 0 mm 2 mps 693 mmHg 35%
    19:00 +15°C° 0 mm 2 mps 693 mmHg 37%
    20:00 +15°C° 0 mm 2 mps 693 mmHg 39%
    21:00 +14°C° 0 mm 2 mps 693 mmHg 41%
    22:00 +14°C° 0 mm 2 mps 693 mmHg 44%
    23:00 +13°C° 0 mm 2 mps 693 mmHg 47%
    Show more